Location: Maiden
(35.5760°N, 81.2120°W)
Time: 15:23:31
(UTC-04:00)

COSMOS 2406 - Pass Details

Date: 14 June 2018
Orbit: 845 x 862 km, 71.0° (Epoch: 15 October)

Event Time Altitude Azimuth Distance (km) Brightness Sun altitude
Rises 23:39:13 0° 348° (NNW) 3,444 7.6 -26.0°
Reaches altitude 10° 23:41:58 10° 359° (N) 2,503 6.5 -26.2°
Maximum altitude 23:47:03 32° 61° (ENE) 1,445 4.4 -26.7°
Enters shadow 23:47:45 31° 75° (ENE) 1,470 4.3 -26.8°
